Simultaneous Nadir Overpasses (SNOs) Predictions

Prediction of SNOs between GOES-16 and METOP-C Satellite Orbit:

Table of predicted SNOs for the next 14.0 days since TLE Epoch: 11/11/2023
Index Date Time (GOES-16) GOES-16 Lat,Lon METOP-C Lat,Lon Distance(km) Time Diff (sec)
1 11/12/2023 14:33:25 -0.06, -75.23 0.04, -75.67 49.68 80
2 11/15/2023 02:31:48 0.05, -75.22 0.06, -75.27 6.07 80
3 11/17/2023 14:30:02 -0.04, -75.25 -0.11, -74.83 47.09 80
4 11/19/2023 02:49:03 0.03, -75.24 -0.89, -79.44 477.79 80
5 11/20/2023 02:25:45 0.03, -75.25 0.24, -74.45 92.22 80
6 11/21/2023 14:44:37 -0.03, -75.29 0.83, -79.00 423.72 80
7 11/22/2023 14:23:59 -0.03, -75.30 -0.30, -74.01 146.81 80
8 11/24/2023 02:45:39 0.02, -75.30 -0.73, -78.60 376.36 80
9 11/25/2023 02:22:20 0.02, -75.32 0.41, -73.61 194.49 80
